Weather Roundup
Issued by NWS Corpus Christi, TX

Home | Current Version | Previous Version | Text Only | Print | Product List | Glossary On
Versions: 1 2 3 4 5 6 7 8 9 10 11 12 13 14 15 16 17 18 19 20 21 22 23 24 25 26 27 28 29 30 31 32 33 34 35 36 37 38 39 40 41 42 43 44 45 46 47 48 49 50
000
ASUS44 KCRP 290710
HRRCRP

SOUTH TEXAS REGIONAL WEATHER ROUNDUP
NATIONAL WEATHER SERVICE CORPUS CHRISTI TX
200 AM CDT FRI JUL 29 2016


TXZ229>244-290800-
...CORPUS CHRISTI AREA OBSERVATIONS...

CITY           SKY/WX    TMP DP  RH WIND       PRES   REMARKS
CORPUS CHRISTI MOCLDY    81  78  91 SE7       29.97S
NAS CORPUS CHR   N/A    N/A N/A N/A MISG      29.96F
ROCKPORT       PTCLDY    84  76  76 SE9       29.96F HX  93
KINGSVILLE NAS PTCLDY    81  81 100 SE8       29.96F HX  92
ALICE          CLEAR     76  75  97 SE5       29.97S
FALFURRIAS     CLEAR     78  75  90 SE3       29.97S
$$

...VICTORIA AREA OBSERVATIONS...

CITY           SKY/WX    TMP DP  RH WIND       PRES   REMARKS
VICTORIA       PTCLDY    77  76  96 SE6       29.98F
BEEVILLE       FAIR      73  73 100 CALM      29.98S
PLEASANTON     PTCLDY    72  71  95 CALM      29.99S
SAN ANTONIO    MOCLDY    74  68  81 NE3       30.01S
$$

...LAREDO AREA OBSERVATIONS...

CITY           SKY/WX    TMP DP  RH WIND       PRES   REMARKS
LAREDO         CLOUDY    78  75  90 E8        29.96F
COTULLA        CLOUDY    76  72  87 E6        29.97F
DEL RIO        CLOUDY    75  71  87 E8        29.99S
MCALLEN        CLEAR     83  77  82 SE8       29.96F HX  92
HEBBRONVILLE   CLEAR     78  75  90 SE8       29.99F
$$

...OTHER TEXAS OBSERVATIONS...

CITY           SKY/WX    TMP DP  RH WIND       PRES   REMARKS
BROWNSVILLE    PTCLDY    82  78  88 SE7       29.97F HX  91
HOUSTON        PTCLDY    76  74  93 CALM      29.99S
COL. STATION   CLOUDY    76  74  93 SE6       29.99R
AUSTIN         PTCLDY    74  73  97 CALM      29.99S
WACO           CLEAR     79  72  79 SE9       29.98S
FORT WORTH     PTCLDY    80  71  74 S8        29.95S
WICHITA FALLS  CLEAR     76  70  82 S7        29.93F
LUBBOCK        CLEAR     78  60  53 SW13      30.07S
EL PASO        CLEAR     84  55  36 SE14      30.06R
$$

...MARINE OBSERVATIONS...

STATION/POSITION TIME  SKY/WX   TEMP    WIND        PRES    VSBY  WAVE   SWELL
                                AIR SEA DIR/SP/G                  HT/PER HT/PER
                 (UTC)          (F)     (DEG/KT/KT) (MB)    (MI)  (FT/S) (FT/S)
PORT ARANSAS     0700            84 88  140/ 15/ 17 1014.6F
BUOY 90 E PORT A 0650            85 86  130/ 10/ 12 1015.2F         3/ 6   2/ 6
BUOY 45 SE BAFFI 0650            85 84  150/ 16/ 17 1014.1F         3/ 6
BUOY 200 E PT IS 0650            84 87  130/ 14/ 17 1015.3F         3/ 5   2/ 7
BUOY 15 E GALVES 0650            85 86  190/ 10/ 12 1015.3F         2/ 6   2/ 6
$$



USA.gov is the U.S. government's official web portal to all federal, state and local government web resources and services.